User: anonymous   Login
Location: Unspecified
(0.0000°N, 0.0000°E)
Time: 17:54:46
(UTC+02:00)
Language:

Delta 2 Rocket - Orbit

View from above orbital plane
View from above orbital plane
View from above satellite
View from above satellite

Ground track
Ground track

The orbit data is extracted from the following two-line orbital elements,

1 20453U 90008B   16206.82464649  .00000724  00000-0  44957-4 0  9995
2 20453  35.6273 351.9248 0294483 327.7443  30.5562 14.81938792399592
Epoch (UTC): 24 July 2016 19:47:29
Eccentricity: 0.0294483
inclination: 35.6273°
perigee height: 417 km
apogee height: 829 km
right ascension of ascending node: 351.9248°
argument of perigee: 327.7443°
revolutions per day: 14.81938792
mean anomaly at epoch: 30.5562°
orbit number at epoch: 39959

The dashed part of the orbit path shows where the satellite is in the earth's shadow,  

DLR